Flag for Lithuania Weather past 2 weeks in Kaunas, Lithuania

Now
59 °F

Passing clouds.


Feels Like: 59 °F
Forecast: 41 / 71 °F
Wind: 5 mph from South

Location: Kaunas

Current Time: May 29, 2015 at 10:09:51 AM

Latest Report: May 29, 2015 at 9:20 AM


Visibility: N/A

Pressure: 29.86 "Hg

Humidity: 51%

Dew point: 41 °F

Location of KaunasLocation

Historic Weather in Kaunas — Graph

°F

Kaunas temperature yesterday

Maximum temperature yesterday: 64 °F (at 3:20 PM)
Minimum temperature yesterday: 45 °F (at 3:50 AM)
Average temperature yesterday: 54 °F

Past Weeks' High & Low Weather Summary

 TemperatureHumidityPressure
High70 °F (May 19, 4:20 PM)94% (May 20, 1:50 AM)30.24 "Hg (May 20, 1:50 AM)
Low34 °F (May 19, 4:20 AM)28% (May 25, 7:50 PM)29.68 "Hg (May 14, 4:50 PM)
Average52 °F69%29.91 "Hg
* Reported May 14 8:20 AM — May 29 8:50 AM, Kaunas, Weather by CustomWeather, © 2015

Note: Actual official high and low records may vary slightly from our data, if they occured in-between our weather recording intervals... More about our weather records

Advertising

Kaunas weather history for previous 24 hours

 ConditionsComfort  
Time TempWeatherWind HumidityBarometerVisibility
8:50 AM
Fri, May 29
57 °FPassing clouds.5 mph55%29.86 "HgN/A
8:20 AM55 °FPassing clouds.5 mph59%29.86 "HgN/A
7:50 AM52 °FPassing clouds.5 mph67%29.86 "HgN/A
7:20 AM50 °FSunny.2 mph76%29.86 "Hg10 mi
6:20 AM45 °FSunny.No wind87%29.86 "Hg10 mi
5:50 AM41 °FFog.No wind87%29.89 "HgN/A
5:20 AM39 °FFog.No wind93%29.89 "HgN/A
4:50 AM39 °FFog.No wind93%29.89 "HgN/A
4:20 AM39 °FFog.No wind93%29.89 "HgN/A
3:50 AM41 °FFog.2 mph87%29.89 "HgN/A
3:20 AM41 °FClear.No wind87%29.89 "Hg10 mi
2:50 AM43 °FClear.No wind87%29.89 "Hg10 mi
2:20 AM43 °FClear.No wind87%29.89 "Hg10 mi
1:50 AM43 °FClear.No wind87%29.89 "Hg10 mi
12:50 AM46 °FClear.1 mph76%29.89 "Hg10 mi
12:20 AM48 °FClear.2 mph71%29.89 "Hg10 mi
11:50 PM
Thu, May 28
48 °FPassing clouds.3 mph71%29.89 "HgN/A
11:20 PM50 °FClear.3 mph67%29.89 "Hg10 mi
10:50 PM50 °FClear.5 mph71%29.89 "Hg10 mi
10:20 PM52 °FSunny.3 mph67%29.89 "Hg10 mi
9:50 PM52 °FSunny.5 mph67%29.89 "Hg10 mi
9:20 PM54 °FPassing clouds.5 mph63%29.89 "HgN/A
8:50 PM57 °FSunny.5 mph55%29.89 "Hg10 mi
8:20 PM59 °FPassing clouds.6 mph51%29.89 "HgN/A
7:50 PM61 °FPassing clouds.9 mph45%29.89 "HgN/A
7:20 PM63 °FSunny.9 mph39%29.89 "Hg10 mi
6:50 PM63 °FPassing clouds.10 mph37%29.89 "HgN/A
6:20 PM64 °FPassing clouds.5 mph30%29.86 "HgN/A
5:50 PM64 °FPassing clouds.8 mph32%29.89 "HgN/A
5:20 PM64 °FPassing clouds.7 mph32%29.89 "HgN/A
4:50 PM63 °FSunny.8 mph34%29.89 "Hg10 mi
4:20 PM61 °FPassing clouds.3 mph39%29.89 "HgN/A
3:50 PM64 °FSunny.6 mph37%29.89 "Hg10 mi
3:20 PM64 °FSunny.7 mph34%29.89 "Hg10 mi
2:50 PM63 °FPassing clouds.6 mph39%29.89 "HgN/A
2:20 PM61 °FPassing clouds.8 mph36%29.89 "HgN/A
1:50 PM63 °FPassing clouds.7 mph39%29.89 "HgN/A
1:20 PM63 °FSunny.3 mph42%29.89 "Hg10 mi
12:50 PM59 °FScattered clouds.6 mph42%29.89 "HgN/A
12:20 PM61 °FScattered clouds.8 mph42%29.89 "HgN/A
11:50 AM57 °FScattered clouds.6 mph48%29.92 "HgN/A
11:20 AM57 °FSunny.5 mph55%29.92 "Hg10 mi
10:50 AM57 °FSunny.6 mph48%29.92 "Hg10 mi
10:20 AM55 °FPassing clouds.6 mph59%29.89 "HgN/A
Weather by CustomWeather, © 2015

See weather overviewHow to use our weather pages